Preview of NWS' New Version of Forecast
This preview is not operational and should not be used for support decisions.

Regional Weather Roundup (RWR)

Issued by National Weather Service (NWS)

                            
000
ASUS43 KMKX 202000
RWRWI 

WISCONSIN REGIONAL WEATHER ROUNDUP
NATIONAL WEATHER SERVICE MILWAUKEE/SULLIVAN WI
300 PM CDT TUE AUG 20 2019

NOTE: "FAIR" INDICATES FEW OR NO CLOUDS BELOW 12,000 FEET WITH NO
SIGNIFICANT WEATHER AND/OR OBSTRUCTIONS TO VISIBILITY.

WIZ001-002-006>008-014>016-023>028-202100-
NORTHWEST WISCONSIN
  
CITY           SKY/WX    TMP DP  RH WIND       PRES   REMARKS
SUPERIOR ARPT  FAIR      80  64  59 W12       29.90F HX  81           
ASHLAND        FAIR      77  62  59 W8        29.91F                  
HAYWARD        FAIR      75  62  64 VRB6      29.94F                  
SIREN          FAIR      77  64  63 NW15G22   29.95F                  
CUMBERLAND     FAIR      73  63  68 NW12G18   29.96S                  
RICE LAKE      FAIR      76  59  55 W13       29.96S                  
CHETEK         FAIR      74  65  72 NW5       29.94S                  
LADYSMITH      FAIR      74  63  68 NW13      29.95R                  
EAU CLAIRE     NOT AVBL                                               
MENOMONIE      FAIR      74  62  66 SW9       29.93R                  
NEW RICHMOND   FAIR      78  64  62 W14       29.95R                  
OSCEOLA        FAIR      78  66  68 SW15      29.97F HX  80           
$$
 
WIZ003>005-009-010-017-018-202100-
NORTH CENTRAL WISCONSIN
  
CITY           SKY/WX    TMP DP  RH WIND       PRES   REMARKS
MANITOWISH WTR FAIR      73  60  64 CALM      29.94F                  
ARBOR VITAE    FAIR      74  62  65 CALM      29.94S                  
WOODRUFF       FAIR      74  62  65 CALM      29.94S                  
RHINELANDER    FAIR      73  59  61 VRB3      29.94F                  
EAGLE RIVER    FAIR      73  56  54 W5        29.95S                  
LAND O LAKES   FAIR      76  56  49 W6        29.97S                  
PHILLIPS       FAIR      72  61  68 CALM      29.93S                  
TOMAHAWK       FAIR      72  61  68 CALM      29.94S                  
MEDFORD        FAIR      71  61  71 E3        29.91S                  
MERRILL        FAIR      74  62  68 SE6       29.92F                  
$$
 
WIZ029-030-035-036-043>047-202100-
CENTRAL WISCONSIN
  
CITY           SKY/WX    TMP DP  RH WIND       PRES   REMARKS
WAUSAU         FAIR      74  61  63 SE5       29.89S                  
MOSINEE        PTSUNNY   73  64  73 CALM      29.91F                  
MARSHFIELD     FAIR      74  63  68 MISG      29.89S                  
STEVENS POINT  FAIR      76  63  62 S5        29.89F                  
WAUPACA        FAIR      82  66  59 S14       29.89F HX  84           
WAUTOMA        FAIR      80  69  69 S9        29.92F HX  83           
WISC RAPIDS    FAIR      77  65  66 S18G29    29.83F                  
CAMP DOUGLAS   NOT AVBL                                               
$$
 
WIZ011>013-019>022-031-037>040-048>050-202100-
NORTHEAST WISCONSIN
  
CITY           SKY/WX    TMP DP  RH WIND       PRES   REMARKS
ANTIGO         FAIR      73  61  66 S6        29.94F                  
SHAWANO        FAIR      81  63  53 S5        29.90F HX  82           
OCONTO         FAIR      78  63  59 S6        29.90F HX  80           
STURGEON BAY   FAIR      79  62  56 SW7       29.93F HX  80           
GREEN BAY      FAIR      82  66  58 S12G18    29.90F HX  84           
MANITOWOC      CLOUDY    76  69  79 SE9       29.96F                  
APPLETON       MOSUNNY   79  66  65 SW7       29.93F HX  81           
CLINTONVILLE   FAIR      81  59  47 S6        29.89F HX  81           
OSHKOSH        FAIR      81  68  64 SW8       29.94F HX  84           
$$
 
WIZ032>034-041-042-053>061-202100-
SOUTHWEST WISCONSIN
  
CITY           SKY/WX    TMP DP  RH WIND       PRES   REMARKS
LA CROSSE      FAIR      79  65  62 W6G17     29.92R HX  81           
SPARTA         FAIR      74  64  71 SE6       29.90F                  
VIROQUA        FAIR      79  70  73 S7        29.93F HX  82           
BOSCOBEL       FAIR      85  65  51 SE9       29.90F HX  86           
PRAIRIE DU CHI FAIR      82  65  56 E10       29.93F HX  83           
PLATTEVILLE    FAIR      80  70  71 N3        29.99F HX  83           
$$

WIZ056-057-062-063-064-067-068-202100-
SOUTH CENTRAL WISCONSIN
  
CITY           SKY/WX    TMP DP  RH WIND       PRES   REMARKS
REEDSBURG      FAIR      81  66  60 SW3       29.94F HX  83           
BARABOO/DELLS  FAIR      83  65  55 W7        29.96F HX  85           
LONE ROCK      NOT AVBL                                               
MINERAL POINT  FAIR      81  72  74 SE6       30.03F HX  84           
MADISON        PTSUNNY   82  69  64 VRB6      29.98F HX  85           
MIDDLETON      FAIR     N/A N/A N/A N9        30.01F                  
WATERTOWN      FAIR      79  74  87 CALM      29.99S HX  82           
MONROE         FAIR      76  72  87 N5        30.02R                  
JANESVILLE     PTSUNNY   75  75 100 E13       29.99R                  
$$
 
WIZ051-052-058>065-066-070>072-202100-
SOUTHEAST WISCONSIN
  
CITY           SKY/WX    TMP DP  RH WIND       PRES   REMARKS
MILWAUKEE      LGT RAIN  74  71  91 S9        30.00S                  
WAUKESHA       PTSUNNY   73  70  88 S6        30.01F                  
MILWAUKEE/TIMM MOSUNNY   75  64  69 SE3       29.99F                  
RACINE         LGT RAIN  74  70  87 SW8       30.03R FOG              
KENOSHA        HVY RAIN  72  71  97 CALM      30.01F FOG              
FOND DU LAC    PTSUNNY   81  70  69 SW5       29.97F HX  84           
SHEBOYGAN      CLOUDY    78  68  71 S6        29.97F HX  80           
WEST BEND      FAIR      79  70  73 CALM      29.99F HX  81           
JUNEAU         FAIR      75  71  86 CALM      30.00F                  
$$

LSZ147-162-202100-
LAKE SUPERIOR
  
STATION/POSITION TIME  TEMP    WIND        PRES    WAVE
                       AIR SEA DIR/SP/G            HT/PER
                 (UTC) (F)     (DEG/KT/KT) (MB)    (FT/S)
W MID LAKE BUOY  1850   65 64  190/  6/  8 1011.9F   1/ 3
DEVILS ISLAND    1900   70     240/ 15/ 17 1012.0F
SAXON HARBOR     1940   72      60/  4/  5 1012.9S
$$
 
LMZ867-665-643>646-202100-
LAKE MICHIGAN
  
STATION/POSITION TIME  TEMP    WIND        PRES    WAVE
                       AIR SEA DIR/SP/G            HT/PER
                 (UTC) (F)     (DEG/KT/KT) (MB)    (FT/S)
N MID LAKE BUOY  1940   70 70  180/  8/  8 1014.0F
NORTHPORT PIER   1940   71     120/  6/  7 1012.9F
KEWAUNEE LAKESHO 1930   71     170/ 10/ 11 1014.1F
SHEBOYGAN LAKESH 1900   71     150/  7/  7 1015.7F
PORT WASHINGTON  1940   74      50/  2/  3 1016.6S
ATWATER BUOY     1930   71 71   20/  4/  6 1016.0F   1/ 3
S MID LAKE BUOY  1940   74 74  220/ 10/ 12 1015.9R
KENOSHA   LAKESH 1900   74     200/  8/ 11 1016.3
$$

TC  - TEMPERATURE IN CELSIUS
VSB - VISIBILITY IN STATUTE MILES
WCI - WIND CHILL INDEX
HX  - HEAT INDEX